Location: Göttingen
(51.5413°N, 9.9158°E)
Time: 12:40:22
(UTC+02:00)

BEESAT - Pass Details

Date: 02 July 2022
Orbit: 700 x 706 km, 98.6° (Epoch: 13 August)

Event Time Altitude Azimuth Distance (km) Brightness Sun altitude
Rises 22:55:35 0° 9° (N) 3,108 ? -8.6°
Reaches altitude 10° 22:58:01 10° 360° (N) 2,186 ? -8.8°
Maximum altitude 23:02:16 33° 297° (WNW) 1,180 ? -9.2°
Drops below altitude 10° 23:06:31 10° 234° (SW) 2,175 ? -9.6°
Sets 23:08:56 0° 225° (SW) 3,091 ? -9.8°
